K6HN Weather Reports


time (UTC)temp
C
wind
direction
speed
KPH
gust
KPH
rain 1hr
cm
rain 24hr
cm
rain mn
cm
humidity
%
barometer
mb
20260506084259 12 276 3.2 8.0 0.00 0.00 0.00 54 1004.4
20260506072759 12 272 3.2 4.8 0.00 0.00 0.28 54 1004.1
20260506071259 12 296 3.2 4.8 0.00 0.00 0.28 54 1004.1
20260506061259 12 272 3.2 3.2 0.00 0.00 0.28 54 1003.4
20260506051259 12 283 0.0 3.2 0.00 0.00 0.28 54 1003.4
20260506044259 12 291 1.6 4.8 0.00 0.00 0.28 54 1003.0
20260506042759 12 284 1.6 3.2 0.00 0.00 0.28 54 1003.0
20260506041259 12 262 3.2 8.0 0.00 0.00 0.28 54 1002.7
20260506035759 12 258 3.2 8.0 0.00 0.00 0.28 54 1002.4
20260506034259 12 288 1.6 3.2 0.00 0.00 0.28 54 1002.4
20260506032759 12 284 1.6 8.0 0.00 0.00 0.28 53 1002.0
20260506031259 12 244 3.2 3.2 0.00 0.00 0.28 54 1002.4
20260506025759 12 262 4.8 8.0 0.00 0.00 0.28 54 1002.0
20260506024259 12 269 4.8 8.0 0.00 0.00 0.28 54 1001.7
20260506022759 12 251 3.2 9.7 0.00 0.00 0.28 54 1001.7
20260506021259 13 268 6.4 11.3 0.00 0.00 0.28 54 1001.4
20260506015759 13 274 6.4 11.3 0.00 0.00 0.28 52 1002.0
20260506014259 13 265 4.8 12.9 0.00 0.00 0.28 54 1001.7
20260506012759 15 246 3.2 14.5 0.00 0.00 0.28 53 1001.7
20260506011259 16 254 6.4 12.9 0.00 0.00 0.28 52 1001.7
20260506005759 16 269 4.8 11.3 0.00 0.00 0.28 52 1001.7
20260506004259 15 273 1.6 9.7 0.00 0.00 0.28 53 1001.4
20260506002759 15 175 6.4 9.7 0.00 0.00 0.28 53 1001.4
20260506001259 15 286 12.9 20.9 0.00 0.00 0.28 51 1001.4
20260505235759 14 331 3.2 8.0 0.00 0.00 0.28 52 1001.4
20260505234259 15 259 4.8 4.8 0.00 0.00 0.28 53 1001.4
20260505232759 15 222 3.2 9.7 0.00 0.00 0.28 51 1001.4
20260505231259 15 261 1.6 11.3 0.00 0.00 0.28 52 1001.7
20260505225759 16 242 4.8 14.5 0.00 0.00 0.28 52 1001.4
20260505224259 16 262 4.8 16.1 0.00 0.00 0.28 51 1001.4
20260505222759 16 247 6.4 9.7 0.00 0.00 0.28 50 1001.4
20260505221259 16 249 8.0 17.7 0.00 0.00 0.28 53 1001.4
20260505215759 16 268 9.7 14.5 0.00 0.00 0.28 53 1001.4
20260505214259 15 253 6.4 12.9 0.00 0.00 0.28 54 1001.4
20260505212759 15 181 1.6 4.8 0.00 0.00 0.28 53 1001.7
20260505211259 15 279 6.4 8.0 0.00 0.00 0.28 53 1002.0
20260505205759 15 278 6.4 17.7 0.00 0.00 0.28 54 1001.4
20260505204259 16 259 11.3 16.1 0.00 0.00 0.28 54 1001.7
20260505202759 15 310 6.4 11.3 0.00 0.00 0.28 54 1001.7
20260505201259 15 297 4.8 14.5 0.00 0.00 0.28 54 1001.7
20260505195759 15 298 9.7 14.5 0.00 0.00 0.28 53 1001.7
20260505194259 14 305 8.0 14.5 0.00 0.00 0.28 52 1001.7
20260505192759 14 284 11.3 12.9 0.00 0.00 0.28 52 1002.0
20260505191259 13 245 6.4 14.5 0.00 0.00 0.28 53 1002.0
20260505185759 13 260 8.0 12.9 0.00 0.00 0.28 53 1001.7
20260505184259 13 258 6.4 14.5 0.00 0.00 0.28 54 1002.0
20260505182759 13 325 8.0 11.3 0.00 0.00 0.28 52 1001.7
20260505181259 12 282 4.8 12.9 0.00 0.00 0.28 53 1001.4
20260505175759 12 289 4.8 11.3 0.00 0.00 0.28 53 1001.4
20260505174259 12 290 8.0 11.3 0.00 0.00 0.28 52 1001.4
20260505172759 12 257 4.8 9.7 0.00 0.00 0.28 51 1001.4
20260505171259 12 290 6.4 11.3 0.00 0.00 0.28 52 1001.4
20260505165759 12 308 4.8 9.7 0.00 0.00 0.28 53 1001.0
20260505164259 12 283 6.4 11.3 0.05 0.00 0.28 52 1001.4
20260505162759 11 259 3.2 8.0 0.05 0.00 0.28 52 1001.4
20260505161259 11 260 1.6 9.7 0.05 0.00 0.28 52 1001.0
20260505152759 11 252 1.6 9.7 0.00 0.00 0.23 51 1000.7
20260505151259 11 271 3.2 4.8 0.00 0.00 0.23 50 1000.7
20260505124259 10 291 0.0 3.2 0.00 0.00 0.23 48 999.7
20260505122759 9 288 3.2 4.8 0.00 0.00 0.23 48 1000.0
20260505121259 9 301 1.6 4.8 0.00 0.00 0.23 49 999.7
20260505115759 9 274 4.8 4.8 0.00 0.00 0.23 48 1000.0
20260505114259 9 254 0.0 1.6 0.00 0.00 0.23 48 1000.0
20260505112759 10 260 0.0 0.0 0.00 0.00 0.23 48 1000.3
20260505111259 10 256 3.2 3.2 0.00 0.00 0.23 48 1000.3
20260505101259 10 275 3.2 4.8 0.03 0.00 0.23 49 1000.0
20260505095759 10 245 3.2 8.0 0.05 0.00 0.23 49 1000.3
20260505094259 10 259 1.6 3.2 0.08 0.00 0.23 49 1000.0
20260505092759 10 264 0.0 1.6 0.08 0.00 0.20 49 1000.7
20260505091259 10 274 0.0 0.0 0.10 0.00 0.20 49 1000.7
20260505085759 10 267 0.0 1.6 0.13 0.00 0.18 49 1000.7